Weather History for New Philadelphia, OH

Change the Weather History Date:

Sunday, November 13, 2011

  Actual Average Record
Temperature  
Mean Temperature 58 °F 44 °F  
Max Temperature 64 °F 54 °F 70 °F (1964)
Min Temperature 52 °F 34 °F 18 °F (1986)
Degree Days  
Heating Degree Days 7 21  
Month to date heating degree days 248  
Since 1 July heating degree days 747  
Cooling Degree Days 0 0  
Month to date cooling degree days 0  
Year to date cooling degree days 697  
Growing Degree Days 8 (Base 50)    
Moisture  
Dew Point 34 °F    
Average Humidity 40    
Maximum Humidity 52    
Minimum Humidity 32    
Precipitation  
Precipitation 0.00 in 0.10 in 0.76 in (1992)
Month to date precipitation 1.29  
Year to date precipitation 34.25  
Sea Level Pressure  
Sea Level Pressure 29.84 in    
Wind  
Wind Speed 11 mph (SSW)    
Max Wind Speed 15 mph    
Max Gust Speed 37 mph    
Visibility 10 miles    
Events      
T = Trace of Precipitation, MM = Missing Value Source: NWS Daily Summary

Daily Weather History Graph

Daily Weather History Graph

Search for Another Location

Airport:

Trip Planner

Search our weather history database for the weather conditions in past years. The results will help you decide how hot, cold, wet, or windy it might be!

Date:

Astronomy

Nov. 13, 2011 Rise Set
Actual Time 7:09 AM EST 5:10 PM EST
Civil Twilight 6:40 AM EST 5:39 PM EST
Nautical Twilight 6:07 AM EST 6:12 PM EST
Astronomical Twilight 5:35 AM EST 6:44 PM EST
Moon 7:17 PM EST (11/13) 9:41 AM EST (11/13)
Length of Visible Light 10h 59m
Length of Day
10h 00m
Waning Gibbous, 93% of the Moon is Illuminated
Nov 13
Waning Gibbous
Nov 18
Last Quarter
Nov 25
New
Dec 2
First Quarter
Dec 10
Full

Hourly Weather History & Observations

Time (EST) Temp. Dew Point Humidity Pressure Visibility Wind Dir Wind Speed Gust Speed Precip Events Conditions
12:53 AM 54.0 °F 26.1 °F 34% 29.96 in 10.0 mi SSW 10.4 mph 18.4 mph N/A   Clear
1:53 AM 53.1 °F 25.0 °F 34% 29.96 in 10.0 mi SSW 8.1 mph - N/A   Clear
3:53 AM 52.0 °F 25.0 °F 35% 29.96 in 10.0 mi SSW 6.9 mph - N/A   Clear
4:53 AM 52.0 °F 25.0 °F 35% 29.95 in 10.0 mi SSW 9.2 mph 23.0 mph N/A   Clear
5:53 AM 52.0 °F 25.0 °F 35% 29.94 in 10.0 mi SSW 12.7 mph 23.0 mph N/A   Partly Cloudy
6:53 AM 52.0 °F 25.0 °F 35% 29.92 in 10.0 mi SSW 9.2 mph - N/A   Clear
7:53 AM 53.1 °F 24.1 °F 32% 29.93 in 10.0 mi SW 11.5 mph 20.7 mph N/A   Overcast
8:53 AM 54.0 °F 26.1 °F 34% 29.93 in 10.0 mi SW 12.7 mph 26.5 mph N/A   Overcast
9:53 AM 57.0 °F 28.9 °F 34% 29.89 in 10.0 mi SW 10.4 mph 24.2 mph N/A   Mostly Cloudy
10:53 AM 57.9 °F 30.9 °F 36% 29.89 in 10.0 mi SW 11.5 mph 20.7 mph N/A   Overcast
11:53 AM 60.1 °F 35.1 °F 39% 29.86 in 10.0 mi SW 11.5 mph 21.9 mph N/A   Overcast
12:53 PM 60.1 °F 36.0 °F 41% 29.81 in 10.0 mi SSW 11.5 mph 25.3 mph N/A   Overcast
1:53 PM 62.1 °F 39.0 °F 43% 29.78 in 10.0 mi SSW 12.7 mph 36.8 mph N/A   Overcast
2:53 PM 64.0 °F 39.9 °F 41% 29.77 in 10.0 mi SW 15.0 mph 26.5 mph N/A   Mostly Cloudy
3:53 PM 63.0 °F 39.9 °F 43% 29.77 in 10.0 mi SSW 11.5 mph 20.7 mph N/A   Overcast
4:53 PM 63.0 °F 41.0 °F 45% 29.74 in 10.0 mi South 12.7 mph 23.0 mph N/A   Overcast
5:53 PM 63.0 °F 41.0 °F 45% 29.73 in 10.0 mi SSW 9.2 mph 19.6 mph N/A   Clear
6:53 PM 63.0 °F 42.1 °F 46% 29.75 in 10.0 mi SSW 12.7 mph 21.9 mph N/A   Mostly Cloudy
7:53 PM 63.0 °F 42.1 °F 46% 29.78 in 10.0 mi SW 8.1 mph 17.3 mph N/A   Overcast
8:53 PM 63.0 °F 43.0 °F 48% 29.77 in 10.0 mi SSW 11.5 mph 24.2 mph N/A   Overcast
9:53 PM 63.0 °F 43.0 °F 48% 29.78 in 10.0 mi SW 10.4 mph 24.2 mph N/A   Mostly Cloudy
10:53 PM 63.0 °F 43.0 °F 48% 29.77 in 10.0 mi SSW 11.5 mph 18.4 mph N/A   Overcast
11:53 PM 62.1 °F 44.1 °F 52% 29.79 in 10.0 mi SW 13.8 mph 19.6 mph N/A   Mostly Cloudy